Time,TemperatureF,DewpointF,PressureIn,WindDirection,WindDirectionDegrees,WindSpeedMPH,WindSpeedGustMPH,Humidity,HourlyPrecipIn,Conditions,Clouds,dailyrainin,SoftwareType,DateUTC
2013-05-26 00:01:00,57.0,37.0,29.92,North,-999,-999.0,-999.0,47,-99.99,,,-99.99,,2013-05-26 06:01:00,
2013-05-26 00:11:00,57.0,37.0,29.92,North,-999,-999.0,-999.0,47,-99.99,,,-99.99,,2013-05-26 06:11:00,
2013-05-26 00:21:00,57.0,37.0,29.92,North,-999,-999.0,-999.0,47,-99.99,,,-99.99,,2013-05-26 06:21:00,
2013-05-26 00:32:00,57.0,39.0,29.93,North,0,0.0,-999.0,50,-99.99,,,-99.99,,2013-05-26 06:32:00,
2013-05-26 00:42:00,57.0,39.0,29.93,North,0,0.0,-999.0,50,-99.99,,,-99.99,,2013-05-26 06:42:00,
2013-05-26 00:52:00,57.0,39.0,29.93,North,0,0.0,-999.0,50,-99.99,,,-99.99,,2013-05-26 06:52:00,
2013-05-26 01:01:00,57.0,39.0,29.93,North,0,0.0,-999.0,50,-99.99,,,-99.99,,2013-05-26 07:01:00,
2013-05-26 01:11:00,57.0,39.0,29.93,North,0,0.0,-999.0,50,-99.99,,,-99.99,,2013-05-26 07:11:00,
2013-05-26 01:21:00,57.0,39.0,29.93,North,0,0.0,-999.0,50,-99.99,,,-99.99,,2013-05-26 07:21:00,
2013-05-26 01:31:00,57.0,39.0,29.93,North,0,0.0,-999.0,50,-99.99,,,-99.99,,2013-05-26 07:31:00,
2013-05-26 01:42:00,57.0,39.0,29.93,North,0,0.0,-999.0,50,-99.99,,,-99.99,,2013-05-26 07:42:00,
2013-05-26 01:52:00,57.0,39.0,29.93,North,0,0.0,-999.0,50,-99.99,,,-99.99,,2013-05-26 07:52:00,
2013-05-26 02:01:00,57.0,39.0,29.93,North,0,0.0,-999.0,50,-99.99,,,-99.99,,2013-05-26 08:01:00,
2013-05-26 02:11:00,57.0,39.0,29.93,North,0,0.0,-999.0,50,-99.99,,,-99.99,,2013-05-26 08:11:00,
2013-05-26 02:21:00,57.0,39.0,29.93,North,0,0.0,-999.0,50,-99.99,,,-99.99,,2013-05-26 08:21:00,
2013-05-26 02:31:00,55.0,39.0,29.93,North,0,0.0,-999.0,54,-99.99,,,-99.99,,2013-05-26 08:31:00,
2013-05-26 02:42:00,55.0,39.0,29.93,North,0,0.0,-999.0,54,-99.99,,,-99.99,,2013-05-26 08:42:00,
2013-05-26 02:53:00,55.0,39.0,29.93,North,0,0.0,-999.0,54,-99.99,,,-99.99,,2013-05-26 08:53:00,
2013-05-26 03:01:00,55.0,39.0,29.93,North,0,0.0,-999.0,54,-99.99,,,-99.99,,2013-05-26 09:01:00,
2013-05-26 03:11:00,54.0,37.0,29.93,North,0,0.0,-999.0,54,-99.99,,,-99.99,,2013-05-26 09:11:00,
2013-05-26 03:21:00,54.0,37.0,29.93,North,0,0.0,-999.0,54,-99.99,,,-99.99,,2013-05-26 09:21:00,
2013-05-26 03:33:00,54.0,37.0,29.93,North,0,0.0,-999.0,54,-99.99,,,-99.99,,2013-05-26 09:33:00,
2013-05-26 03:42:00,54.0,37.0,29.93,North,0,0.0,-999.0,54,-99.99,,,-99.99,,2013-05-26 09:42:00,
2013-05-26 03:52:00,52.0,37.0,29.93,North,0,0.0,-999.0,57,-99.99,,,-99.99,,2013-05-26 09:52:00,
2013-05-26 04:02:00,52.0,37.0,29.93,North,0,0.0,-999.0,57,-99.99,,,-99.99,,2013-05-26 10:02:00,
2013-05-26 04:11:00,52.0,37.0,29.94,North,0,0.0,-999.0,57,-99.99,,,-99.99,,2013-05-26 10:11:00,
2013-05-26 04:22:00,52.0,37.0,29.94,North,0,0.0,-999.0,57,-99.99,,,-99.99,,2013-05-26 10:22:00,
2013-05-26 04:32:00,52.0,37.0,29.94,North,0,0.0,-999.0,57,-99.99,,,-99.99,,2013-05-26 10:32:00,
2013-05-26 04:42:00,52.0,37.0,29.94,North,0,0.0,-999.0,57,-99.99,,,-99.99,,2013-05-26 10:42:00,
2013-05-26 04:52:00,52.0,37.0,29.94,North,0,0.0,-999.0,57,-99.99,,,-99.99,,2013-05-26 10:52:00,
2013-05-26 05:02:00,52.0,37.0,29.94,North,0,0.0,-999.0,57,-99.99,,,-99.99,,2013-05-26 11:02:00,
2013-05-26 05:11:00,52.0,37.0,29.94,North,0,0.0,-999.0,57,-99.99,,,-99.99,,2013-05-26 11:11:00,
2013-05-26 05:22:00,52.0,37.0,29.94,North,0,0.0,-999.0,57,-99.99,,,-99.99,,2013-05-26 11:22:00,
2013-05-26 05:32:00,52.0,37.0,29.95,North,0,0.0,-999.0,57,-99.99,,,-99.99,,2013-05-26 11:32:00,
2013-05-26 05:42:00,52.0,37.0,29.95,North,0,0.0,-999.0,57,-99.99,,,-99.99,,2013-05-26 11:42:00,
2013-05-26 05:52:00,50.0,36.0,29.96,North,0,0.0,-999.0,57,-99.99,,,-99.99,,2013-05-26 11:52:00,
2013-05-26 06:01:00,50.0,36.0,29.96,North,0,0.0,-999.0,57,-99.99,,,-99.99,,2013-05-26 12:01:00,
2013-05-26 06:11:00,48.0,36.0,29.97,North,0,0.0,-999.0,61,-99.99,,,-99.99,,2013-05-26 12:11:00,
2013-05-26 06:21:00,48.0,36.0,29.97,North,0,0.0,-999.0,61,-99.99,,,-99.99,,2013-05-26 12:21:00,
2013-05-26 06:31:00,48.0,37.0,29.98,North,0,0.0,-999.0,66,-99.99,,,-99.99,,2013-05-26 12:31:00,
2013-05-26 06:41:00,48.0,37.0,29.98,North,0,0.0,-999.0,66,-99.99,,,-99.99,,2013-05-26 12:41:00,
2013-05-26 06:52:00,48.0,37.0,29.98,North,0,0.0,-999.0,66,-99.99,,,-99.99,,2013-05-26 12:52:00,
2013-05-26 07:02:00,48.0,37.0,29.98,North,0,0.0,-999.0,66,-99.99,,,-99.99,,2013-05-26 13:02:00,
2013-05-26 07:11:00,52.0,39.0,29.98,North,0,0.0,-999.0,61,-99.99,,,-99.99,,2013-05-26 13:11:00,
2013-05-26 07:21:00,52.0,39.0,29.98,North,0,0.0,-999.0,61,-99.99,,,-99.99,,2013-05-26 13:21:00,
2013-05-26 07:32:00,54.0,39.0,29.98,North,0,0.0,-999.0,58,-99.99,,,-99.99,,2013-05-26 13:32:00,
2013-05-26 07:42:00,54.0,39.0,29.98,North,0,0.0,-999.0,58,-99.99,,,-99.99,,2013-05-26 13:42:00,
2013-05-26 07:52:00,54.0,39.0,29.98,North,0,0.0,-999.0,58,-99.99,,,-99.99,,2013-05-26 13:52:00,
2013-05-26 08:01:00,54.0,39.0,29.98,North,0,0.0,-999.0,58,-99.99,,,-99.99,,2013-05-26 14:01:00,
2013-05-26 08:11:00,54.0,39.0,29.98,North,0,0.0,-999.0,58,-99.99,,,-99.99,,2013-05-26 14:11:00,
2013-05-26 08:21:00,54.0,39.0,29.98,North,0,0.0,-999.0,58,-99.99,,,-99.99,,2013-05-26 14:21:00,
2013-05-26 08:32:00,55.0,39.0,29.98,North,0,0.0,-999.0,54,-99.99,,,-99.99,,2013-05-26 14:32:00,
2013-05-26 08:41:00,55.0,39.0,29.98,North,0,0.0,-999.0,54,-99.99,,,-99.99,,2013-05-26 14:41:00,
2013-05-26 08:51:00,57.0,39.0,29.98,North,0,0.0,-999.0,50,-99.99,,,-99.99,,2013-05-26 14:51:00,
2013-05-26 09:01:00,57.0,39.0,29.98,North,0,0.0,-999.0,50,-99.99,,,-99.99,,2013-05-26 15:01:00,
2013-05-26 09:11:00,55.0,39.0,29.98,North,0,0.0,-999.0,54,-99.99,,,-99.99,,2013-05-26 15:11:00,
2013-05-26 09:22:00,55.0,39.0,29.98,North,0,0.0,-999.0,54,-99.99,,,-99.99,,2013-05-26 15:22:00,
2013-05-26 09:33:00,57.0,39.0,29.98,North,0,0.0,-999.0,50,-99.99,,,-99.99,,2013-05-26 15:33:00,
2013-05-26 09:43:00,57.0,39.0,29.98,North,0,0.0,-999.0,50,-99.99,,,-99.99,,2013-05-26 15:43:00,
2013-05-26 09:53:00,57.0,41.0,29.97,North,0,0.0,-999.0,54,-99.99,,,-99.99,,2013-05-26 15:53:00,
2013-05-26 10:03:00,57.0,41.0,29.97,North,0,0.0,-999.0,54,-99.99,,,-99.99,,2013-05-26 16:03:00,
2013-05-26 10:12:00,59.0,43.0,29.96,North,0,0.0,-999.0,54,-99.99,,,-99.99,,2013-05-26 16:12:00,
2013-05-26 10:23:00,59.0,43.0,29.96,North,0,0.0,-999.0,54,-99.99,,,-99.99,,2013-05-26 16:23:00,
2013-05-26 10:33:00,61.0,43.0,29.96,North,0,0.0,-999.0,51,-99.99,,,-99.99,,2013-05-26 16:33:00,
2013-05-26 10:42:00,61.0,43.0,29.96,North,0,0.0,-999.0,51,-99.99,,,-99.99,,2013-05-26 16:42:00,
2013-05-26 10:52:00,61.0,45.0,29.96,North,0,0.0,-999.0,55,-99.99,,,-99.99,,2013-05-26 16:52:00,
2013-05-26 11:02:00,61.0,45.0,29.96,North,0,0.0,-999.0,55,-99.99,,,-99.99,,2013-05-26 17:02:00,
2013-05-26 11:11:00,61.0,45.0,29.95,North,0,0.0,-999.0,55,-99.99,,,-99.99,,2013-05-26 17:11:00,
2013-05-26 11:22:00,61.0,45.0,29.95,North,0,0.0,-999.0,55,-99.99,,,-99.99,,2013-05-26 17:22:00,
2013-05-26 11:32:00,61.0,45.0,29.95,North,0,0.0,-999.0,55,-99.99,,,-99.99,,2013-05-26 17:32:00,
2013-05-26 11:42:00,61.0,45.0,29.95,North,0,0.0,-999.0,55,-99.99,,,-99.99,,2013-05-26 17:42:00,
2013-05-26 11:52:00,63.0,46.0,29.94,North,0,0.0,-999.0,55,-99.99,,,-99.99,,2013-05-26 17:52:00,
2013-05-26 12:01:00,63.0,46.0,29.94,North,0,0.0,-999.0,55,-99.99,,,-99.99,,2013-05-26 18:01:00,
2013-05-26 12:12:00,63.0,45.0,29.94,North,0,0.0,-999.0,51,-99.99,,,-99.99,,2013-05-26 18:12:00,
2013-05-26 12:21:00,63.0,45.0,29.94,North,0,0.0,-999.0,51,-99.99,,,-99.99,,2013-05-26 18:21:00,
2013-05-26 12:31:00,63.0,46.0,29.94,North,0,0.0,-999.0,55,-99.99,,,-99.99,,2013-05-26 18:31:00,
2013-05-26 12:42:00,63.0,46.0,29.94,North,0,0.0,-999.0,55,-99.99,,,-99.99,,2013-05-26 18:42:00,
2013-05-26 12:52:00,63.0,46.0,29.93,North,0,0.0,-999.0,55,-99.99,,,-99.99,,2013-05-26 18:52:00,
2013-05-26 13:01:00,63.0,46.0,29.93,North,0,0.0,-999.0,55,-99.99,,,-99.99,,2013-05-26 19:01:00,
2013-05-26 13:11:00,64.0,48.0,29.91,North,0,0.0,-999.0,55,-99.99,,,-99.99,,2013-05-26 19:11:00,
2013-05-26 13:21:00,64.0,48.0,29.91,North,0,0.0,-999.0,55,-99.99,,,-99.99,,2013-05-26 19:21:00,
2013-05-26 13:31:00,64.0,48.0,29.91,North,0,0.0,-999.0,55,-99.99,,,-99.99,,2013-05-26 19:31:00,
2013-05-26 13:42:00,64.0,48.0,29.91,North,0,0.0,-999.0,55,-99.99,,,-99.99,,2013-05-26 19:42:00,
2013-05-26 13:52:00,66.0,48.0,29.90,North,0,0.0,-999.0,52,-99.99,,,-99.99,,2013-05-26 19:52:00,
2013-05-26 14:01:00,66.0,48.0,29.90,North,0,0.0,-999.0,52,-99.99,,,-99.99,,2013-05-26 20:01:00,
2013-05-26 14:11:00,66.0,48.0,29.89,North,0,0.0,-999.0,52,-99.99,,,-99.99,,2013-05-26 20:11:00,
2013-05-26 14:21:00,66.0,48.0,29.89,North,0,0.0,-999.0,52,-99.99,,,-99.99,,2013-05-26 20:21:00,
2013-05-26 14:32:00,68.0,48.0,29.88,North,0,0.0,-999.0,49,-99.99,,,-99.99,,2013-05-26 20:32:00,
2013-05-26 14:41:00,68.0,48.0,29.88,North,0,0.0,-999.0,49,-99.99,,,-99.99,,2013-05-26 20:41:00,
2013-05-26 14:52:00,70.0,50.0,29.87,North,0,0.0,-999.0,49,-99.99,,,-99.99,,2013-05-26 20:52:00,
2013-05-26 15:01:00,70.0,50.0,29.87,North,0,0.0,-999.0,49,-99.99,,,-99.99,,2013-05-26 21:01:00,
2013-05-26 15:11:00,70.0,50.0,29.87,North,0,0.0,-999.0,49,-99.99,,,-99.99,,2013-05-26 21:11:00,
2013-05-26 15:22:00,70.0,50.0,29.87,North,0,0.0,-999.0,49,-99.99,,,-99.99,,2013-05-26 21:22:00,
2013-05-26 15:33:00,70.0,50.0,29.87,North,0,0.0,-999.0,49,-99.99,,,-99.99,,2013-05-26 21:33:00,
2013-05-26 15:43:00,70.0,50.0,29.87,North,0,0.0,-999.0,49,-99.99,,,-99.99,,2013-05-26 21:43:00,
2013-05-26 15:53:00,70.0,50.0,29.86,North,0,0.0,-999.0,49,-99.99,,,-99.99,,2013-05-26 21:53:00,
2013-05-26 16:02:00,70.0,50.0,29.86,North,0,0.0,-999.0,49,-99.99,,,-99.99,,2013-05-26 22:02:00,
2013-05-26 16:12:00,70.0,48.0,29.86,North,0,0.0,-999.0,46,-99.99,,,-99.99,,2013-05-26 22:12:00,
2013-05-26 16:23:00,70.0,48.0,29.86,North,0,0.0,-999.0,46,-99.99,,,-99.99,,2013-05-26 22:23:00,
2013-05-26 16:33:00,72.0,48.0,29.85,North,0,0.0,-999.0,43,-99.99,,,-99.99,,2013-05-26 22:33:00,
2013-05-26 16:42:00,72.0,48.0,29.85,North,0,0.0,-999.0,43,-99.99,,,-99.99,,2013-05-26 22:42:00,
2013-05-26 16:53:00,72.0,48.0,29.85,North,0,0.0,-999.0,43,-99.99,,,-99.99,,2013-05-26 22:53:00,
2013-05-26 17:02:00,72.0,48.0,29.85,North,0,0.0,-999.0,43,-99.99,,,-99.99,,2013-05-26 23:02:00,
2013-05-26 17:11:00,72.0,48.0,29.84,North,0,0.0,-999.0,43,-99.99,,,-99.99,,2013-05-26 23:11:00,
2013-05-26 17:22:00,72.0,48.0,29.84,North,0,0.0,-999.0,43,-99.99,,,-99.99,,2013-05-26 23:22:00,
2013-05-26 17:32:00,72.0,48.0,29.83,North,0,0.0,-999.0,43,-99.99,,,-99.99,,2013-05-26 23:32:00,
2013-05-26 17:42:00,72.0,48.0,29.83,North,0,0.0,-999.0,43,-99.99,,,-99.99,,2013-05-26 23:42:00,
2013-05-26 17:51:00,72.0,48.0,29.82,North,0,0.0,-999.0,43,-99.99,,,-99.99,,2013-05-26 23:51:00,
2013-05-26 18:02:00,72.0,48.0,29.82,North,0,0.0,-999.0,43,-99.99,,,-99.99,,2013-05-27 00:02:00,
2013-05-26 18:11:00,70.0,48.0,29.83,North,0,0.0,-999.0,46,-99.99,,,-99.99,,2013-05-27 00:11:00,
2013-05-26 18:21:00,70.0,48.0,29.83,North,0,0.0,-999.0,46,-99.99,,,-99.99,,2013-05-27 00:21:00,
2013-05-26 18:31:00,68.0,46.0,29.84,North,0,0.0,-999.0,45,-99.99,,,-99.99,,2013-05-27 00:31:00,
2013-05-26 18:41:00,68.0,46.0,29.84,North,0,0.0,-999.0,45,-99.99,,,-99.99,,2013-05-27 00:41:00,
2013-05-26 18:52:00,66.0,46.0,29.84,North,0,0.0,-999.0,48,-99.99,,,-99.99,,2013-05-27 00:52:00,
2013-05-26 19:01:00,66.0,46.0,29.84,North,0,0.0,-999.0,48,-99.99,,,-99.99,,2013-05-27 01:01:00,
2013-05-26 19:11:00,66.0,46.0,29.85,North,0,0.0,-999.0,48,-99.99,,,-99.99,,2013-05-27 01:11:00,
2013-05-26 19:22:00,66.0,46.0,29.85,North,0,0.0,-999.0,48,-99.99,,,-99.99,,2013-05-27 01:22:00,
2013-05-26 19:31:00,66.0,46.0,29.84,North,0,0.0,-999.0,48,-99.99,,,-99.99,,2013-05-27 01:31:00,
2013-05-26 19:42:00,66.0,46.0,29.84,North,0,0.0,-999.0,48,-99.99,,,-99.99,,2013-05-27 01:42:00,
2013-05-26 19:52:00,68.0,46.0,29.83,North,0,0.0,-999.0,45,-99.99,,,-99.99,,2013-05-27 01:52:00,
2013-05-26 20:01:00,68.0,46.0,29.83,North,0,0.0,-999.0,45,-99.99,,,-99.99,,2013-05-27 02:01:00,
2013-05-26 20:11:00,66.0,46.0,29.84,North,0,0.0,-999.0,48,-99.99,,,-99.99,,2013-05-27 02:11:00,
2013-05-26 20:21:00,66.0,46.0,29.84,North,0,0.0,-999.0,48,-99.99,,,-99.99,,2013-05-27 02:21:00,
2013-05-26 20:31:00,64.0,46.0,29.84,North,0,0.0,-999.0,51,-99.99,,,-99.99,,2013-05-27 02:31:00,
2013-05-26 20:42:00,64.0,46.0,29.84,North,0,0.0,-999.0,51,-99.99,,,-99.99,,2013-05-27 02:42:00,
2013-05-26 20:52:00,63.0,46.0,29.84,North,0,0.0,-999.0,55,-99.99,,,-99.99,,2013-05-27 02:52:00,
2013-05-26 21:02:00,63.0,46.0,29.84,North,0,0.0,-999.0,55,-99.99,,,-99.99,,2013-05-27 03:02:00,
2013-05-26 21:11:00,59.0,45.0,29.84,North,0,0.0,-999.0,58,-99.99,,,-99.99,,2013-05-27 03:11:00,
2013-05-26 21:21:00,59.0,45.0,29.84,North,0,0.0,-999.0,58,-99.99,,,-99.99,,2013-05-27 03:21:00,
2013-05-26 21:33:00,57.0,46.0,29.84,North,0,0.0,-999.0,67,-99.99,,,-99.99,,2013-05-27 03:33:00,
2013-05-26 21:42:00,57.0,46.0,29.84,North,0,0.0,-999.0,67,-99.99,,,-99.99,,2013-05-27 03:42:00,
2013-05-26 21:53:00,57.0,45.0,29.84,North,0,0.0,-999.0,62,-99.99,,,-99.99,,2013-05-27 03:53:00,
2013-05-26 22:02:00,57.0,45.0,29.84,North,0,0.0,-999.0,62,-99.99,,,-99.99,,2013-05-27 04:02:00,
2013-05-26 22:12:00,57.0,45.0,29.84,North,0,0.0,-999.0,62,-99.99,,,-99.99,,2013-05-27 04:12:00,
2013-05-26 22:22:00,57.0,45.0,29.84,North,0,0.0,-999.0,62,-99.99,,,-99.99,,2013-05-27 04:22:00,
2013-05-26 22:33:00,55.0,45.0,29.84,North,0,0.0,-999.0,66,-99.99,,,-99.99,,2013-05-27 04:33:00,
2013-05-26 22:42:00,55.0,45.0,29.84,North,0,0.0,-999.0,66,-99.99,,,-99.99,,2013-05-27 04:42:00,
2013-05-26 22:52:00,54.0,45.0,29.84,North,0,0.0,-999.0,71,-99.99,,,-99.99,,2013-05-27 04:52:00,
2013-05-26 23:02:00,54.0,45.0,29.84,North,0,0.0,-999.0,71,-99.99,,,-99.99,,2013-05-27 05:02:00,
2013-05-26 23:12:00,54.0,45.0,29.84,North,0,0.0,-999.0,71,-99.99,,,-99.99,,2013-05-27 05:12:00,
2013-05-26 23:22:00,54.0,45.0,29.84,North,0,0.0,-999.0,71,-99.99,,,-99.99,,2013-05-27 05:22:00,
2013-05-26 23:32:00,54.0,45.0,29.84,North,0,0.0,-999.0,71,-99.99,,,-99.99,,2013-05-27 05:32:00,
2013-05-26 23:41:00,54.0,45.0,29.84,North,0,0.0,-999.0,71,-99.99,,,-99.99,,2013-05-27 05:41:00,
2013-05-26 23:52:00,54.0,45.0,29.86,North,0,0.0,-999.0,71,-99.99,,,-99.99,,2013-05-27 05:52:00,